Location: Celina Division
(33.3022°N, 96.7580°W)
Time: 16:43:21
(UTC+00:00)

Cosmos 1812 - Pass Details

Date: 04 July 2022
Orbit: 508 x 515 km, 82.5° (Epoch: 14 August)

Event Time Altitude Azimuth Distance (km) Brightness Sun altitude
Rises 07:50:05 0° 352° (N) 2,631 7.1 -30.8°
Reaches altitude 10° 07:52:13 10° 352° (N) 1,739 6.0 -30.6°
Enters shadow 07:53:26 20° 351° (N) 1,247 5.2 -30.5°
